Location: Fabrikalar
(36.9069°N, 30.6681°E)
Time: 05:43:41
(UTC+00:00)

Daily predictions for brighter satellites

Satellite Brightness Start Highest point End
(mag) Time Altitude Azimuth Time Altitude Azimuth Time Altitude Azimuth
CENTAUR R/B 4.0 01:02:09 31° NE 01:02:09 31° NE 01:05:32 10° NE
Cosmos 2279 Rocket 4.5 01:26:28 10° N 01:32:34 57° E 01:38:37 10° SSE
ATLAS CENTAUR Rocket 4.3 01:40:39 15° SSE 01:40:39 15° SSE 01:41:25 10° SSE
CZ-2C R/B 3.7 01:36:01 10° NNE 01:39:02 35° NE 01:39:02 35° NE
ISS -0.4 01:48:44 11° NE 01:48:44 11° NE 01:48:51 10° NE
ATLAS 3B R/B 3.4 01:42:38 26° S 01:46:02 47° ESE 01:52:17 10° NE
ADEOS Rocket 2.8 01:55:50 10° SSE 02:01:19 76° ENE 02:06:51 10° N
Cosmos 1833 Rocket 2.6 02:07:03 56° SSW 02:08:20 87° ESE 02:14:01 10° NNE
NOSS 3-3 (C) 4.5 02:08:04 39° NW 02:11:21 69° WSW 02:19:43 10° SSE
Cosmos 1461 3.1 02:14:45 74° SSE 02:15:00 77° ESE 02:19:40 10° NNE
Cosmos 292 Rocket 4.4 02:23:57 41° SSW 02:23:57 41° SSW 02:27:21 10° S
Cosmos 1626 2.3 02:24:38 46° SSE 02:25:36 70° E 02:29:16 10° NNE
Cosmos 2082 Rocket 2.4 02:23:21 10° SSW 02:28:55 72° ESE 02:34:30 10° NNE
Meteor 1-16 Rocket 4.1 02:31:13 27° NNW 02:33:52 50° W 02:39:00 10° SSW
Cosmos 1092 Rocket 4.4 02:27:57 10° S 02:34:00 65° E 02:40:08 10° NNE
Lacrosse 4 Rocket 3.6 02:36:55 13° NNW 02:36:55 13° NNW 02:37:33 10° N
Cosmos 1484 Rocket 2.7 02:30:35 10° NNE 02:34:27 80° ESE 02:38:12 10° S
Cosmos 44 Rocket 3.3 02:32:18 31° NW 02:34:51 81° WSW 02:40:02 10° SSE
Cosmos 1656 3.6 02:31:47 23° NNW 02:35:24 65° WSW 02:40:59 10° S
Nadezhda 4 Rocket 3.8 02:33:19 10° SSW 02:39:22 68° W 02:45:29 10° N
deb Kosmos-1763 4.0 02:40:43 59° NW 02:40:43 59° NW 02:43:56 10° N
Intercosmos 24 4.0 02:37:02 10° N 02:40:41 63° E 02:44:16 10° SSE
Meteor 2-13 Rocket 4.4 02:35:48 10° S 02:41:56 87° E 02:48:07 10° N
CZ-4B R/B 1.6 02:39:09 10° SSE 02:42:36 72° ENE 02:46:03 10° N
Meteor 2-5 Rocket 3.6 02:41:55 10° SSW 02:47:33 74° W 02:53:21 10° N
Cosmos 1726 Rocket 4.3 02:44:29 10° N 02:48:53 57° E 02:53:15 10° SSE
CENTAUR R/B 3.7 02:49:21 21° NW 02:50:24 22° NW 02:55:39 10° NNE
COSMOS 2406 3.9 02:49:39 30° WNW 02:50:32 32° WNW 02:55:33 10° N
CZ-4B R/B 3.9 02:47:56 10° NNE 02:51:56 50° E 02:56:05 10° S
Elektron 1 4.1 02:53:19 43° W 02:53:50 48° NW 02:56:36 10° NNE
Lacrosse 5 rocket 2.6 02:55:14 21° NNW 02:55:14 21° NNW 02:57:45 10° NNE
Abrixas rocket 4.4 02:54:16 12° N 02:55:12 13° NNE 02:56:43 10° NE
Cosmos 1697 Rocket 2.6 02:51:28 10° NNW 02:57:09 82° WSW 03:02:48 10° SSE
Cosmos 2228 2.9 02:53:52 10° N 02:58:15 80° W 03:02:37 10° S
Meteor 1-31 Rocket 2.7 02:54:53 10° N 02:58:48 69° WNW 03:02:41 10° SSW
ALOS 2.3 02:54:57 10° N 02:59:30 54° WNW 03:04:02 10° SSW
Cosmos 2251 Rocket 3.5 02:55:40 10° SSW 03:01:00 67° WNW 03:06:20 10° NNE
Cosmos 614 Rocket 4.5 02:58:38 10° S 03:03:43 62° ESE 03:08:47 10° NNE
ATLAS CENTAUR R/B 4.1 03:01:18 10° SSE 03:04:15 20° ESE 03:07:07 10° ENE
Cosmos 1606 Rocket 3.5 02:59:50 10° NNW 03:04:17 73° W 03:08:44 10° S
COSMO-SKYMED 1 3.0 03:03:32 10° SSE 03:07:50 66° ENE 03:12:08 10° N
Cosmos 1689 Rocket 2.7 03:05:51 10° SSE 03:08:43 55° ENE 03:11:36 10° N
FENGYUN 3A 3.9 03:03:31 10° N 03:08:43 48° WNW 03:13:55 10° SW
H-2A R/B 4.1 03:08:00 10° SW 03:08:44 13° SW 03:08:44 13° SW
DELTA 2 R/B (1) 4.2 03:12:39 19° W 03:16:14 41° SSW 03:21:27 10° SE
CZ-2C R/B 4.0 03:15:48 10° NNW 03:18:24 15° WNW 03:18:24 15° WNW
Cosmos 1980 Rocket 2.3 03:13:49 10° NNW 03:19:26 80° ENE 03:25:02 10° SSE
CZ-4B R/B 4.4 03:16:39 10° N 03:20:30 37° WNW 03:24:10 10° SW
USA 290 3.3 03:20:39 17° WSW 03:22:11 24° WNW 03:24:55 10° N
ISS -1.7 03:21:42 13° NW 03:22:43 14° NNW 03:24:35 10° N
ERS-2 3.3 03:20:24 10° SSW 03:23:15 22° W 03:26:06 10° NW
Cosmos 1428 Rocket 4.4 03:18:43 10° SSW 03:24:56 68° W 03:31:07 10° N
SAR-Lupe-4 3.9 03:22:02 10° S 03:25:26 42° W 03:28:52 10° NNW
BREEZE-M DEB (TANK) 1.9 03:25:10 18° W 03:26:43 37° SW 03:28:46 10° SSE
Gblst 52 Del rocket 4.5 03:22:01 10° SW 03:27:36 77° SE 03:33:48 10° NE
Cosmos 220 Rocket 4.3 03:23:48 10° NNW 03:28:02 45° WSW 03:32:13 10° S
Okean 1-7 Rocket 3.6 03:24:23 10° SSW 03:28:53 62° W 03:33:23 10° N
Cosmos 1400 Rocket 2.8 03:25:25 10° NNW 03:29:17 57° W 03:33:04 10° S
Cosmos 1553 Rocket 4.4 03:24:23 10° N 03:30:28 66° E 03:36:29 10° SSE
Cosmos 2098 Rocket 4.3 03:26:13 10° S 03:32:41 68° E 03:37:54 10° NNE
Cosmos 2360 4.4 03:28:00 10° NNW 03:33:30 50° WSW 03:38:56 10° S
Cosmos 2058 Rocket 3.1 03:31:53 10° NNW 03:36:21 66° W 03:40:46 10° S
Cosmos 2026 Rocket 4.2 03:30:31 10° SSW 03:36:40 52° W 03:42:54 10° N
ATLAS 3B R/B 3.3 03:31:04 10° WSW 03:36:51 32° NW 03:42:43 10° NNE
Cosmos 2084 4.1 03:33:47 10° WSW 03:37:46 36° NW 03:41:49 10° NNE
Aureole 3 3.9 03:35:23 10° NNW 03:39:42 59° W 03:45:12 10° S
Cosmos 1892 Rocket 4.3 03:38:10 10° SW 03:41:57 29° WNW 03:45:47 10° NNW
H-2A R/B 2.9 03:41:04 10° NNE 03:45:25 73° ESE 03:49:35 10° S
Cosmos 407 Rocket 3.4 03:42:19 10° SSW 03:47:25 78° WNW 03:52:35 10° NNE
ADEOS Rocket 4.5 03:46:17 10° WSW 03:47:29 11° W 03:48:41 10° WNW
Cosmos 2278 3.8 03:42:09 10° NNW 03:47:40 56° WSW 03:53:09 10° S
Envisat 3.6 03:43:07 10° NNE 03:48:10 64° E 03:53:11 10° S
Cosmos 2322 Rocket 4.0 03:45:33 10° N 03:50:37 32° ENE 03:55:37 10° ESE
